Flag for Norway Weather past 2 weeks in Søgne, Norway

Now
72 °F

Mild.


Feels Like: 73 °F
Forecast: 61 / 77 °F
Wind: 10 mph from West

Location: Oksoy Fyr

Current Time: Jul 28, 2014 at 2:25:44 PM

Latest Report: Jul 28, 2014 at 1:00 PM


Visibility: N/A

Pressure: 29.96 "Hg

Humidity: 76%

Dew point: 64 °F

Location of SøgneLocation

Historic Weather in Søgne — Graph

°F

Søgne temperature yesterday

Maximum temperature yesterday: 74 °F (at 5:00 PM)
Minimum temperature yesterday: 68 °F (at 2:00 PM)
Average temperature yesterday: 70 °F

Past Weeks' High & Low Weather Summary

 TemperatureHumidityPressure
High77 °F (Jul 23, 7:00 PM)94% (Jul 15, 1:00 PM)30.30 "Hg (Jul 15, 1:00 PM)
Low57 °F (Jul 19, 5:00 AM)50% (Jul 16, 1:00 PM)29.57 "Hg (Jul 14, 4:00 AM)
Average68 °F77%30.04 "Hg
* Reported Jul 13 1:00 PM — Jul 28 1:00 PM, Søgne, Weather by CustomWeather, © 2014

Note: Actual official high and low records may vary slightly from our data, if they occured in-between our weather recording intervals... More about our weather records

Advertising

Søgne weather history for previous 24 hours

 ConditionsComfort  
Time TempWeatherWind HumidityBarometerVisibility
1:00 PM
Jul 28
72 °FMild.10 mph76%29.96 "HgN/A
12:00 PM72 °FMild.8 mph72%29.96 "HgN/A
11:00 AM71 °FMild.6 mph78%29.97 "HgN/A
10:00 AM70 °FMild.2 mph81%29.96 "HgN/A
9:00 AM68 °FMild.1 mph85%29.96 "HgN/A
8:00 AM66 °FMild.1 mph89%29.96 "HgN/A
7:00 AM65 °FMild.3 mph92%29.95 "HgN/A
6:00 AM64 °FMild.2 mph93%29.95 "HgN/A
5:00 AM65 °FMild.2 mph91%29.94 "HgN/A
4:00 AM66 °FMild.2 mph93%29.93 "HgN/A
3:00 AM66 °FMild.2 mph93%29.93 "HgN/A
2:00 AM67 °FMild.2 mph92%29.93 "HgN/A
1:00 AM68 °FMild.2 mph90%29.93 "HgN/A
12:00 AM69 °FMild.3 mph88%29.93 "HgN/A
11:00 PM
Jul 27
69 °FMild.2 mph85%29.92 "HgN/A
10:00 PM70 °FMild.2 mph84%29.91 "HgN/A
9:00 PM71 °FMild.3 mph82%29.90 "HgN/A
8:00 PM72 °FMild.2 mph81%29.89 "HgN/A
7:00 PM72 °FMild.3 mph80%29.89 "HgN/A
6:00 PM74 °FMild.2 mph75%29.88 "HgN/A
5:00 PM74 °FMild.3 mph76%29.89 "HgN/A
4:00 PM73 °FMild.5 mph78%29.91 "HgN/A
3:00 PM71 °FMild.3 mph78%29.91 "HgN/A
2:00 PM68 °FMild.6 mph84%29.91 "HgN/A
Weather by CustomWeather, © 2014

See weather overviewHow to use our weather pages